Regional Weather Roundup
Issued by NWS

Home | Current Version | Previous Version | Text Only | Print | Product List | Glossary On
Versions: 1 2 3 4 5 6 7 8 9 10 11 12 13 14 15 16 17 18 19 20 21 22 23 24 25 26 27 28 29 30 31 32 33 34 35 36 37 38 39 40 41 42 43 44 45 46 47 48 49 50
000
ASUS43 KTOP 242208
RWRKS

WEATHER ROUNDUP FOR KANSAS
NATIONAL WEATHER SERVICE GOODLAND KS
500 PM CDT WED MAY 24 2017

NOTE:  "FAIR" INDICATES FEW OR NO CLOUDS BELOW 12,000 FEET WITH NO
SIGNIFICANT WEATHER AND/OR OBSTRUCTIONS TO VISIBILITY.

KSZ001>006-013>018-027>032-041>047-242300-
NORTHWEST KANSAS

CITY           SKY/WX    TMP DP  RH WIND       PRES   REMARKS
GOODLAND       SUNNY     75  43  31 S12       29.63F
HAYS           SUNNY     68  42  38 VRB5      29.71F
HILL CITY      SUNNY     70  39  32 SE6       29.69F
RUSSELL        SUNNY     67  44  43 VRB3      29.70F
$$

KSZ061>065-074>080-084>089-242300-
SOUTHWEST KANSAS

CITY           SKY/WX    TMP DP  RH WIND       PRES   REMARKS
DODGE CITY     SUNNY     72  43  35 S8        29.71F
ELKHART          N/A     79  42  26 S5          N/A
GARDEN CITY    SUNNY     74  40  29 S8        29.68F
LIBERAL        SUNNY     76  46  34 VRB5      29.69F
PRATT          SUNNY     65  38  36 CALM      29.73F
$$

KSZ066>073-081>083-090>101-242300-
SOUTHEAST KANSAS

CITY           SKY/WX    TMP DP  RH WIND       PRES   REMARKS
CHANUTE        MOSUNNY   70  46  42 NW14      29.69F
COFFEYVILLE    MOSUNNY   69  49  48 W16       29.70F
HUTCHINSON     MOSUNNY   66  43  43 W6        29.73F
MEDICINE LODGE   N/A     71  41  33 VRB3      29.72F
NEWTON         MOSUNNY   66  44  45 VRB6      29.74F
PARSONS        MOSUNNY   69  47  45 NW13      29.71F
WICHITA INTL   MOSUNNY   67  44  43 MISG      29.73F
WICHITA JABRA  PTSUNNY   67  45  45 W6        29.73F
WICHITA MCCONL MOSUNNY   67  43  41 N7        29.73F
WINFIELD       SUNNY     68  46  45 W8        29.75F
$$

KSZ007>012-019>026-033>040-048>060-102>105-242300-
NORTHEAST KANSAS

CITY           SKY/WX    TMP DP  RH WIND       PRES   REMARKS
CONCORDIA      CLOUDY    65  45  48 E3        29.71F
EMPORIA        CLOUDY    65  44  46 NW12      29.70F
LAWRENCE       PTSUNNY   66  49  54 NW10      29.68F
MANHATTAN      CLOUDY    70  46  42 NW7       29.70F
MARYSVILLE     CLOUDY    64  46  52 CALM      29.70F
OLATHE IND     PTSUNNY   64  48  56 N6        29.69S
OLATHE EXE     CLOUDY    63  48  58 N9        29.68S
SALINA         MOSUNNY   68  43  40 NW6       29.73F
TOPEKA BILLARD MOSUNNY   68  48  48 N10       29.68F
TOPEKA FORBES  PTSUNNY   67  47  48 NW8       29.69F
$$




USA.gov is the U.S. government's official web portal to all federal, state and local government web resources and services.